Location: Asheville, NC
(35.6000°N, 82.5500°W)
Time: 00:56:41
(UTC-04:00)

XW-2F - Pass Details

Date: 11 January 2018
Orbit: 506 x 527 km, 97.5° (Epoch: 23 June)

Event Time Altitude Azimuth Distance (km) Brightness Sun altitude
Rises 18:01:01 0° 172° (S) 2,647 ? -5.3°
Reaches altitude 10° 18:03:07 10° 174° (S) 1,763 ? -5.7°
Maximum altitude 18:06:55 72° 259° (WSW) 558 ? -6.4°
Drops below altitude 10° 18:10:44 10° 344° (NNW) 1,776 ? -7.1°
Sets 18:12:52 0° 346° (NNW) 2,668 ? -7.5°
